Voltar ao catálogo

COSMOS 1275 DEB

AtivoPO
NORAD 14408·DEBRIS·🇷🇺 Russia

Lançado Jun 4, 1981 de Plesetsk Cosmodrome

Loading…

Próximas Passagens (próximas 24 horas)

TLE

EnvelhecendoSource: Space-Track

Época: Sep 9, 2026, 01:51 UTC

1 14408U 81053JD  26252.07767855  .00000665  00000-0  66938-3 0  9998
2 14408  82.9599 110.8020 0112548 155.1330 357.5086 13.73285919714972

Acompanhe COSMOS 1275 DEB em tempo real com AllMySat

Download on the App Store